• en France
  • Liste des pays
  • À 7 jours
  • Température de l'eau
  • Carte satellitaire
  • Carte météo
  • Widgets météo
  • user-avatar
    Se connecter

    Météo par heure à Harachi

    Ce jour, 22 Octobre, Lundi

    Heure Température Précipitation Vent Pression Humidité
    00:00 +12°C° 0 mm 1 m/s 658 mmHg 75%
    01:00 +12°C° 0 mm 1 m/s 658 mmHg 74%
    02:00 +11°C° 0 mm 1 m/s 658 mmHg 73%
    03:00 +11°C° 0 mm 1 m/s 658 mmHg 75%
    04:00 +11°C° 0.1 mm 1 m/s 658 mmHg 74%
    05:00 +11°C° 0.1 mm 1 m/s 658 mmHg 72%
    06:00 +12°C° 0.1 mm 1 m/s 658 mmHg 71%
    07:00 +12°C° 0.2 mm 1 m/s 658 mmHg 69%
    08:00 +13°C° 0.2 mm 1 m/s 659 mmHg 67%
    09:00 +14°C° 0.2 mm 1 m/s 659 mmHg 64%
    10:00 +14°C° 0.2 mm 1 m/s 659 mmHg 64%
    11:00 +15°C° 0.2 mm 1 m/s 659 mmHg 64%
    12:00 +15°C° 0.2 mm 1 m/s 659 mmHg 64%
    13:00 +15°C° 0.1 mm 1 m/s 659 mmHg 66%
    14:00 +15°C° 0.1 mm 1 m/s 659 mmHg 68%
    15:00 +15°C° 0.1 mm 1 m/s 659 mmHg 70%
    16:00 +14°C° 0.1 mm 1 m/s 659 mmHg 77%
    17:00 +13°C° 0.1 mm 1 m/s 659 mmHg 84%
    18:00 +12°C° 0.1 mm 1 m/s 659 mmHg 91%
    19:00 +10°C° 0.1 mm 0 m/s 659 mmHg 91%
    20:00 +10°C° 0.1 mm 0 m/s 659 mmHg 92%
    21:00 +10°C° 0.1 mm 0 m/s 659 mmHg 92%
    22:00 +10°C° 0.2 mm 0 m/s 659 mmHg 91%
    23:00 +10°C° 0.2 mm 0 m/s 659 mmHg 90%

    Demain, 23 Octobre, Mardi

    Heure Température Précipitation Vent Pression Humidité
    00:00 +10°C° 0.2 mm 0 m/s 659 mmHg 90%
    01:00 +10°C° 0.1 mm 1 m/s 659 mmHg 88%
    02:00 +10°C° 0.1 mm 1 m/s 659 mmHg 87%
    03:00 +10°C° 0.1 mm 1 m/s 659 mmHg 86%
    04:00 +10°C° 0 mm 1 m/s 658 mmHg 84%
    05:00 +9°C° 0 mm 1 m/s 658 mmHg 82%
    06:00 +9°C° 0 mm 1 m/s 658 mmHg 80%
    07:00 +11°C° 0 mm 1 m/s 658 mmHg 74%
    08:00 +12°C° 0 mm 1 m/s 659 mmHg 67%
    09:00 +14°C° 0 mm 1 m/s 660 mmHg 61%
    10:00 +15°C° 0 mm 1 m/s 659 mmHg 59%
    11:00 +16°C° 0 mm 2 m/s 659 mmHg 57%
    12:00 +16°C° 0 mm 2 m/s 659 mmHg 55%
    13:00 +16°C° 0 mm 2 m/s 659 mmHg 57%
    14:00 +16°C° 0 mm 2 m/s 659 mmHg 60%
    15:00 +15°C° 0 mm 2 m/s 658 mmHg 62%
    16:00 +14°C° 0 mm 1 m/s 658 mmHg 69%
    17:00 +13°C° 0 mm 1 m/s 658 mmHg 75%
    18:00 +12°C° 0 mm 1 m/s 657 mmHg 81%
    19:00 +12°C° 0 mm 1 m/s 657 mmHg 80%
    20:00 +11°C° 0 mm 1 m/s 657 mmHg 79%
    21:00 +11°C° 0 mm 1 m/s 657 mmHg 78%
    22:00 +11°C° 0 mm 1 m/s 657 mmHg 77%
    23:00 +10°C° 0 mm 1 m/s 657 mmHg 76%

    Après-demain, 24 Octobre, Mercredi

    Heure Température Précipitation Vent Pression Humidité
    00:00 +10°C° 0 mm 1 m/s 656 mmHg 74%
    01:00 +10°C° 0 mm 1 m/s 656 mmHg 74%
    02:00 +10°C° 0 mm 1 m/s 656 mmHg 74%
    03:00 +10°C° 0 mm 1 m/s 655 mmHg 74%
    04:00 +8°C° 0 mm 2 m/s 655 mmHg 74%
    05:00 +8°C° 0 mm 2 m/s 655 mmHg 75%
    06:00 +8°C° 0 mm 2 m/s 655 mmHg 75%
    07:00 +10°C° 0 mm 2 m/s 655 mmHg 69%
    08:00 +13°C° 0 mm 2 m/s 655 mmHg 63%
    09:00 +15°C° 0 mm 2 m/s 656 mmHg 57%
    10:00 +16°C° 0 mm 3 m/s 655 mmHg 53%
    11:00 +17°C° 0 mm 3 m/s 655 mmHg 49%
    12:00 +18°C° 0 mm 3 m/s 654 mmHg 45%
    13:00 +18°C° 0.1 mm 3 m/s 654 mmHg 46%
    14:00 +18°C° 0.1 mm 3 m/s 653 mmHg 47%
    15:00 +17°C° 0.1 mm 3 m/s 653 mmHg 48%
    16:00 +16°C° 0 mm 3 m/s 652 mmHg 54%
    17:00 +13°C° 0 mm 3 m/s 652 mmHg 59%
    18:00 +12°C° 0 mm 3 m/s 651 mmHg 64%
    19:00 +12°C° 0 mm 3 m/s 651 mmHg 63%
    20:00 +12°C° 0 mm 3 m/s 650 mmHg 62%
    21:00 +12°C° 0 mm 3 m/s 650 mmHg 61%
    22:00 +12°C° 0 mm 3 m/s 650 mmHg 60%
    23:00 +12°C° 0 mm 3 m/s 649 mmHg 60%

    25 Octobre, Jeudi

    Heure Température Précipitation Vent Pression Humidité
    00:00 +11°C° 0 mm 3 m/s 648 mmHg 59%
    01:00 +11°C° 0 mm 3 m/s 648 mmHg 60%
    02:00 +11°C° 0 mm 3 m/s 647 mmHg 60%
    03:00 +11°C° 0 mm 4 m/s 647 mmHg 61%
    04:00 +11°C° 0 mm 3 m/s 647 mmHg 62%
    05:00 +11°C° 0 mm 3 m/s 647 mmHg 62%
    06:00 +11°C° 0 mm 3 m/s 647 mmHg 63%
    07:00 +12°C° 0 mm 3 m/s 647 mmHg 58%
    08:00 +14°C° 0 mm 3 m/s 647 mmHg 53%
    09:00 +17°C° 0 mm 3 m/s 647 mmHg 48%
    10:00 +18°C° 0 mm 4 m/s 647 mmHg 44%
    11:00 +20°C° 0 mm 4 m/s 647 mmHg 40%
    12:00 +21°C° 0 mm 5 m/s 647 mmHg 35%
    13:00 +21°C° 0 mm 4 m/s 647 mmHg 38%
    14:00 +20°C° 0 mm 4 m/s 647 mmHg 40%
    15:00 +19°C° 0 mm 4 m/s 646 mmHg 42%
    16:00 +17°C° 0 mm 3 m/s 646 mmHg 52%
    17:00 +14°C° 0 mm 3 m/s 646 mmHg 62%
    18:00 +12°C° 0 mm 3 m/s 646 mmHg 71%
    19:00 +11°C° 0.1 mm 4 m/s 647 mmHg 75%
    20:00 +10°C° 0.1 mm 4 m/s 647 mmHg 79%
    21:00 +8°C° 0.1 mm 5 m/s 648 mmHg 83%
    22:00 +8°C° 0.1 mm 4 m/s 648 mmHg 83%
    23:00 +7°C° 0.1 mm 4 m/s 648 mmHg 83%

    26 Octobre, Vendredi

    Heure Température Précipitation Vent Pression Humidité
    00:00 +6°C° 0.1 mm 4 m/s 649 mmHg 84%
    01:00 +6°C° 0.1 mm 4 m/s 649 mmHg 83%
    02:00 +5°C° 0.1 mm 3 m/s 649 mmHg 82%
    03:00 +5°C° 0.1 mm 3 m/s 649 mmHg 82%
    04:00 +4°C° 0.5 mm 3 m/s 650 mmHg 82%
    05:00 +5°C° 0.5 mm 2 m/s 650 mmHg 81%
    06:00 +5°C° 0.5 mm 2 m/s 650 mmHg 81%
    07:00 +4°C° 1.8 mm 2 m/s 651 mmHg 83%
    08:00 +4°C° 1.8 mm 2 m/s 651 mmHg 84%
    09:00 +3°C° 1.8 mm 2 m/s 651 mmHg 85%
    10:00 +3°C° 1.1 mm 2 m/s 652 mmHg 85%
    11:00 +3°C° 1.1 mm 2 m/s 652 mmHg 84%
    12:00 +3°C° 1.1 mm 2 m/s 652 mmHg 84%
    13:00 +4°C° 0.2 mm 2 m/s 652 mmHg 83%
    14:00 +4°C° 0.2 mm 2 m/s 652 mmHg 82%
    15:00 +4°C° 0.2 mm 2 m/s 652 mmHg 81%
    16:00 +4°C° 0.1 mm 2 m/s 652 mmHg 82%
    17:00 +3°C° 0.1 mm 2 m/s 653 mmHg 82%
    18:00 +3°C° 0.1 mm 2 m/s 653 mmHg 83%
    19:00 +1°C° 0 mm 3 m/s 653 mmHg 79%
    20:00 +1°C° 0 mm 3 m/s 653 mmHg 76%
    21:00 0°C° 0 mm 3 m/s 653 mmHg 73%
    22:00 0°C° 0 mm 3 m/s 654 mmHg 70%
    23:00 0°C° 0 mm 3 m/s 654 mmHg 67%

    27 Octobre, Samedi

    Heure Température Précipitation Vent Pression Humidité
    00:00 0°C° 0 mm 3 m/s 655 mmHg 64%
    01:00 0°C° 0 mm 3 m/s 656 mmHg 67%
    02:00 0°C° 0 mm 3 m/s 656 mmHg 71%
    03:00 +1°C° 0 mm 3 m/s 657 mmHg 74%
    04:00 0°C° 0.1 mm 3 m/s 658 mmHg 76%
    05:00 0°C° 0.1 mm 3 m/s 659 mmHg 78%
    06:00 0°C° 0.1 mm 3 m/s 660 mmHg 80%
    07:00 +1°C° 0 mm 3 m/s 660 mmHg 77%
    08:00 +2°C° 0 mm 3 m/s 661 mmHg 75%
    09:00 +3°C° 0 mm 3 m/s 662 mmHg 73%
    10:00 +4°C° 0 mm 3 m/s 662 mmHg 70%
    11:00 +5°C° 0 mm 3 m/s 663 mmHg 67%
    12:00 +7°C° 0 mm 3 m/s 663 mmHg 64%
    13:00 +7°C° 0 mm 3 m/s 663 mmHg 64%
    14:00 +7°C° 0 mm 2 m/s 663 mmHg 64%
    15:00 +7°C° 0 mm 2 m/s 664 mmHg 64%
    16:00 +6°C° 0 mm 2 m/s 664 mmHg 67%
    17:00 +5°C° 0 mm 1 m/s 664 mmHg 69%
    18:00 +4°C° 0 mm 1 m/s 664 mmHg 72%
    19:00 +4°C° 0 mm 1 m/s 664 mmHg 71%
    20:00 +3°C° 0 mm 2 m/s 665 mmHg 69%
    21:00 +2°C° 0 mm 2 m/s 665 mmHg 68%
    22:00 +2°C° 0 mm 2 m/s 665 mmHg 67%
    23:00 +2°C° 0 mm 2 m/s 665 mmHg 65%

    28 Octobre, Dimanche

    Heure Température Précipitation Vent Pression Humidité
    00:00 +2°C° 0 mm 2 m/s 665 mmHg 64%
    01:00 +2°C° 0 mm 2 m/s 665 mmHg 63%
    02:00 +1°C° 0 mm 3 m/s 665 mmHg 63%
    03:00 +1°C° 0 mm 3 m/s 665 mmHg 62%
    04:00 +1°C° 0 mm 3 m/s 665 mmHg 61%
    05:00 +2°C° 0 mm 3 m/s 665 mmHg 61%
    06:00 +2°C° 0 mm 3 m/s 665 mmHg 60%
    07:00 +5°C° 0 mm 2 m/s 666 mmHg 58%
    08:00 +7°C° 0 mm 2 m/s 666 mmHg 56%
    09:00 +9°C° 0 mm 2 m/s 667 mmHg 54%
    10:00 +10°C° 0 mm 2 m/s 667 mmHg 53%
    11:00 +12°C° 0 mm 2 m/s 667 mmHg 52%
    12:00 +14°C° 0 mm 2 m/s 667 mmHg 50%
    13:00 +14°C° 0 mm 2 m/s 667 mmHg 51%
    14:00 +14°C° 0 mm 2 m/s 667 mmHg 53%
    15:00 +14°C° 0 mm 2 m/s 666 mmHg 54%
    16:00 +12°C° 0 mm 2 m/s 666 mmHg 57%
    17:00 +9°C° 0 mm 2 m/s 666 mmHg 60%
    18:00 +8°C° 0 mm 2 m/s 665 mmHg 63%
    19:00 +7°C° 0 mm 2 m/s 665 mmHg 60%
    20:00 +7°C° 0 mm 2 m/s 665 mmHg 57%
    21:00 +7°C° 0 mm 2 m/s 665 mmHg 54%
    22:00 +7°C° 0 mm 2 m/s 665 mmHg 51%
    23:00 +7°C° 0 mm 2 m/s 665 mmHg 49%
    Voir plus